Home   Weather   Santarém   Past weeks

Flag for Brazil Past Weather in Santarém, Pará, Brazil — Yesterday and Last 2 Weeks

Now
84 °F

Passing clouds.


Feels Like: 91 °F
Forecast: 77 / 91 °F
Wind: 7 mph from Southeast

Location: Santarem-Aeroporto

Current Time: Sep 25, 2016 at 9:26:36 AM

Latest Report: Sep 25, 2016 at 9:00 AM


Visibility: N/A

Pressure: 29.95 "Hg

Humidity: 70%

Dew Point: 73 °F

Location of SantarémLocation

Past Weather in Santarém — Graph

°F

Santarém Temperature Yesterday

Maximum temperature yesterday: 91 °F (at 3:00 PM)
Minimum temperature yesterday: 73 °F (at 5:00 AM)
Average temperature yesterday: 83 °F

High & Low Weather Summary for the Past Weeks

 TemperatureHumidityPressure
High93 °F (Sep 22, 4:00 PM)100% (Sep 21, 12:00 AM)30.01 "Hg (Sep 21, 12:00 AM)
Low73 °F (Sep 21, 2:00 AM)49% (Sep 22, 5:00 PM)29.77 "Hg (Sep 20, 5:00 PM)
Average84 °F77%29.88 "Hg
* Reported Sep 20 1:00 PM — Sep 25 8:00 AM, Santarém, Weather by CustomWeather, © 2016

Note: Actual official high and low records may vary slightly from our data, if they occured in-between our weather recording intervals... More about our weather records

Advertising

Santarém Weather History for the Previous 24 Hours

Scroll right to see more
 ConditionsComfort  
Time TempWeatherWind HumidityBarometerVisibility
8:00 AM
Sun, Sep 25
82 °FPassing clouds.17 mph74%29.92 "HgN/A
7:00 AM81 °FClear.9 mph79%29.92 "Hg10 mi
6:00 AM81 °FClear.15 mph79%29.89 "Hg10 mi
5:00 AM81 °FClear.10 mph84%29.86 "Hg10 mi
4:00 AM82 °FClear.10 mph79%29.86 "Hg10 mi
3:00 AM81 °FClear.7 mph84%29.86 "Hg10 mi
2:00 AM79 °FClear.6 mph89%29.86 "Hg10 mi
1:00 AM79 °FClear.6 mph89%29.89 "Hg10 mi
12:00 AM81 °FClear.5 mph84%29.92 "Hg10 mi
11:00 PM
Sat, Sep 24
81 °FClear.3 mph84%29.92 "Hg10 mi
10:00 PM82 °FClear.5 mph79%29.89 "Hg10 mi
9:00 PM86 °FClear.7 mph70%29.89 "Hg10 mi
8:00 PM84 °FPassing clouds.7 mph70%29.86 "HgN/A
7:00 PM86 °FPassing clouds.6 mph62%29.83 "HgN/A
6:00 PM88 °FPassing clouds.9 mph59%29.83 "HgN/A
5:00 PM91 °FPassing clouds.12 mph52%29.83 "HgN/A
4:00 PM91 °FPassing clouds.9 mph52%29.86 "HgN/A
3:00 PM91 °FPassing clouds.9 mph49%29.86 "HgN/A
2:00 PM90 °FPassing clouds.7 mph55%29.89 "HgN/A
1:00 PM90 °FPassing clouds.6 mph59%29.95 "HgN/A
12:00 PM90 °FPassing clouds.15 mph59%29.98 "HgN/A
11:00 AM88 °FPassing clouds.16 mph59%29.98 "HgN/A
10:00 AM86 °FScattered clouds.15 mph66%30.01 "HgN/A
9:00 AM84 °FPassing clouds.12 mph70%29.98 "HgN/A
Weather by CustomWeather, © 2016

See weather overviewHow to use our weather pages